Wind_Speed
9 9 8 7 7 7 7 7 10 12 14 15 16 19 21 23 23 22 21 20 18 16 15 15 14 12 12 12 11 13 16 16 15 14 13 12 12 13 13 13 14 16 18 19 19 19 16 14 13 12 11 9 8 7 8 9 11 12 14 14 15 16 17 17 16 16 16 16 17 17 18 19 20 20 20 20 20 20 21 22 24 25 26 26 25 25
9 9 9 8 9 8 8 8 9 11 14 17 19 22 22 22 23 22 21 19 17 15 15 15 15 13 12 12 12 13 15 15 15 14 13 13 13 13 14 16 17 19 20 21 22 21 20 19 18 17 15 14 13 11 10 13 15 15 16 17 18 18 19 19 18 17 18 18 19 19 21 21 22 22 22 22 21 20 21 22 24 25 26 27 27 27
9 9 8 9 10 9 8 8 6 7 9 14 19 20 21 23 23 23 22 20 18 16 17 17 15 14 13 13 12 12 14 15 14 13 13 13 13 14 16 17 19 21 22 21 20 19 22 24 23 19 17 18 20 17 15 18 19 19 19 19 19 20 21 21 21 19 19 20 21 22 23 24 25 25 25 25 23 23 23 24 25 25 26 27 28 28
8 8 9 10 11 10 11 10 8 5 2 7 12 14 16 20 21 23 24 22 20 18 18 17 15 15 14 13 13 12 14 14 14 13 13 13 14 15 17 20 23 23 20 18 18 19 25 24 22 16 14 14 17 19 20 22 22 21 21 20 21 21 22 22 22 22 22 22 22 23 24 25 26 27 28 28 27 27 27 27 27 27 27 28 28 28
9 10 11 11 12 14 15 14 10 7 4 1 6 7 10 15 18 21 25 25 23 21 19 17 17 16 15 14 13 12 13 13 13 13 13 14 15 17 19 20 20 17 13 14 16 18 23 15 11 11 12 12 12 15 18 21 21 21 21 21 22 23 23 23 23 24 24 25 25 25 26 27 28 28 29 30 30 31 31 31 31 30 29 29 29 29
11 12 12 13 16 19 19 16 11 8 7 4 1 2 7 11 14 18 23 27 27 23 20 18 18 17 16 15 14 13 13 12 12 13 14 16 17 18 19 18 15 12 11 14 16 17 17 12 7 11 14 14 17 18 19 20 21 22 22 22 23 24 25 25 25 25 26 27 28 27 27 28 29 29 30 30 30 31 32 33 33 33 32 31 30 30
13 14 15 18 21 21 20 17 14 10 8 8 6 6 7 9 12 14 18 25 27 24 22 20 18 19 18 17 16 15 14 13 13 15 15 16 17 17 17 17 16 14 14 16 17 17 17 15 15 16 18 20 22 22 22 22 22 22 23 24 24 25 25 26 27 28 28 28 29 29 30 30 30 31 31 31 30 30 31 32 33 34 34 33 32 31
14 15 17 20 21 21 20 19 17 14 11 9 10 10 9 9 12 14 15 21 25 23 22 20 19 20 20 19 18 17 16 15 15 16 16 16 16 16 15 15 16 16 16 17 17 17 18 18 19 20 22 23 22 23 23 22 22 23 23 24 24 25 26 27 28 29 30 30 29 30 31 32 32 32 33 33 33 32 33 32 33 34 35 35 34 33
16 17 18 19 20 20 21 21 20 18 15 12 13 13 11 12 14 16 16 19 23 24 23 21 20 21 22 21 20 18 17 17 17 17 17 16 16 15 14 14 16 17 18 18 17 18 18 20 21 22 23 22 22 22 22 22 23 23 24 24 25 25 26 27 28 29 30 31 31 31 31 33 34 34 35 36 36 35 35 35 35 36 36 37 37 37
16 16 17 18 19 20 21 23 21 21 19 17 17 16 14 14 14 15 16 18 20 21 22 22 22 22 23 23 22 20 19 19 18 18 17 16 15 14 14 15 17 17 17 17 18 18 19 20 21 22 22 22 22 22 22 23 23 23 24 24 25 26 26 27 27 28 29 30 31 32 32 33 35 35 36 37 38 38 38 37 37 37 38 39 41 41
16 15 16 18 18 19 21 22 22 21 20 19 19 19 18 17 15 14 14 15 17 16 18 21 22 21 23 23 22 21 21 20 19 19 18 16 15 15 15 16 17 17 17 17 18 18 19 20 21 21 21 22 23 23 24 24 25 25 25 25 26 26 27 28 27 28 28 28 29 31 32 33 34 36 36 37 39 39 40 40 40 40 39 40 42 44
15 15 16 17 18 19 20 22 22 21 21 20 19 19 19 17 16 14 13 13 13 12 14 18 20 20 22 22 22 22 21 21 20 19 18 17 15 15 16 16 17 17 17 17 17 18 19 20 20 21 22 23 24 24 25 25 25 26 26 27 27 27 27 28 28 28 28 28 29 29 30 31 33 35 36 37 38 40 41 42 43 43 42 41 43 44
15 15 15 15 17 18 18 20 21 20 21 20 18 17 17 16 15 14 12 10 10 10 11 13 15 17 18 17 19 21 20 21 20 18 17 16 16 16 16 16 16 15 15 16 16 17 18 19 20 22 22 23 24 24 24 25 25 25 26 26 26 27 27 27 28 28 29 29 30 30 30 31 32 34 36 37 38 39 40 42 43 44 44 43 44 46
15 15 15 15 16 16 17 19 19 18 19 19 17 17 16 15 15 14 11 9 8 8 9 10 11 13 14 13 14 16 17 18 17 17 17 16 16 15 15 14 13 13 14 15 15 16 18 19 20 20 21 21 21 22 23 23 24 25 25 25 26 26 27 27 27 27 28 29 30 31 31 32 32 33 35 37 39 40 40 41 42 43 44 44 44 45
15 15 15 15 15 14 16 17 16 16 18 18 16 16 16 14 13 12 10 8 7 7 8 9 9 10 11 11 12 13 14 15 15 16 16 15 14 13 13 13 13 13 14 15 16 16 17 18 18 18 18 19 19 20 21 22 23 23 24 25 25 26 26 27 27 27 28 29 30 31 33 33 34 34 35 36 38 40 41 41 42 43 44 45 45 44
15 15 14 15 14 12 14 14 13 14 16 16 15 15 15 13 11 10 9 7 7 7 7 8 8 8 9 10 10 10 11 12 12 12 12 11 11 11 11 12 12 13 13 14 15 16 16 16 16 16 17 18 18 19 19 20 21 22 23 23 24 25 26 27 28 28 29 30 31 33 34 35 36 37 37 37 38 39 40 41 42 43 44 44 46 46
14 14 14 13 12 11 12 12 11 12 14 14 14 14 14 12 11 11 9 7 7 6 5 5 6 7 7 7 8 9 8 9 9 9 9 9 9 10 10 11 11 12 13 14 15 15 15 15 15 16 17 17 18 18 19 19 20 21 22 23 24 24 25 26 27 28 30 31 32 34 35 37 38 38 39 39 39 40 41 41 42 43 44 44 45 46
14 14 13 12 11 11 11 10 10 10 11 12 13 12 11 11 11 10 9 8 7 7 4 3 3 5 5 4 5 6 7 7 7 7 7 8 8 8 9 10 11 12 13 14 14 14 15 15 16 17 18 18 18 19 20 20 21 22 22 23 24 24 25 26 26 28 29 31 32 34 35 35 36 37 38 40 40 40 41 42 42 42 43 45 45 45
14 13 13 11 10 10 9 9 9 9 9 10 11 9 9 9 8 8 8 7 7 6 4 3 3 3 3 2 3 4 5 5 5 6 7 7 7 8 9 10 11 12 13 14 15 15 16 17 18 19 19 19 20 21 21 22 22 23 23 24 25 25 26 26 27 28 29 30 32 33 34 33 33 33 35 37 38 39 40 40 42 42 42 43 44 44
14 13 13 11 10 9 8 7 7 7 8 8 8 7 7 7 6 6 6 6 6 5 3 2 2 1 2 2 3 4 4 4 5 5 6 6 7 8 9 10 12 13 14 15 16 16 17 18 19 19 20 21 22 22 23 23 24 24 25 26 26 27 27 27 28 29 30 31 32 33 33 31 30 30 30 32 34 36 37 38 40 41 41 42 43 43
13 13 13 12 11 9 8 7 6 7 7 7 7 7 6 6 5 5 5 5 4 4 3 2 1 2 2 3 4 5 4 5 5 6 6 7 8 9 10 11 12 13 14 15 16 17 18 19 20 20 21 22 23 23 24 24 25 25 26 27 27 28 28 28 29 29 29 30 31 32 32 30 29 28 28 29 30 31 33 35 37 38 40 40 41 42
11 12 13 13 12 11 9 8 7 7 7 7 7 6 6 5 5 4 4 4 4 3 3 3 4 4 4 5 6 6 6 6 7 7 8 9 9 10 11 12 13 14 15 15 17 18 19 20 21 21 22 22 23 23 24 24 25 26 27 28 28 29 29 29 29 29 29 29 30 31 31 30 29 29 29 29 29 30 30 31 33 35 37 38 39 40
10 11 12 13 13 12 10 9 9 8 8 8 7 6 6 5 5 4 4 4 3 3 4 4 5 5 6 6 7 8 8 8 8 9 10 10 11 12 12 13 14 14 15 16 18 19 20 21 21 22 22 23 23 24 24 25 26 26 27 28 28 29 29 30 30 29 29 29 29 29 30 30 29 29 29 29 30 31 31 31 31 32 33 36 37 38
9 10 12 12 13 13 12 11 11 10 9 8 7 6 5 4 4 4 4 4 4 4 5 5 6 7 7 8 8 9 9 10 10 11 12 12 12 13 13 14 14 15 16 17 18 19 21 22 22 23 23 24 24 24 25 25 26 27 27 28 28 29 29 29 30 29 29 29 29 29 29 29 29 28 28 28 29 31 32 31 31 31 31 32 34 36
8 10 11 12 13 13 13 11 10 9 9 7 6 4 4 4 4 4 4 4 4 5 6 6 7 8 8 9 9 10 11 11 12 12 13 13 13 14 15 15 15 16 17 18 18 19 21 22 23 24 24 25 25 25 25 26 26 27 27 27 28 28 29 29 29 29 30 30 30 29 29 29 29 29 28 27 27 28 30 31 31 31 31 31 32 34
8 9 10 11 12 12 12 10 9 8 7 6 5 4 3 3 3 3 3 4 4 5 6 7 8 8 8 9 9 10 11 11 12 13 13 14 15 15 16 16 17 18 18 18 19 20 21 22 23 24 25 25 26 26 26 26 26 27 27 27 27 28 28 28 29 29 29 30 30 31 30 30 30 29 28 27 27 27 28 29 30 31 31 30 31 32
8 8 9 10 11 11 12 11 9 8 7 6 5 4 4 3 3 3 3 3 4 4 5 6 7 7 8 8 9 10 10 11 12 13 13 14 15 16 17 17 18 19 19 19 20 20 21 22 23 24 25 26 26 27 27 27 27 27 27 27 26 27 28 28 29 29 29 30 31 31 31 31 31 31 30 28 27 27 27 27 28 29 30 30 30 31
8 8 8 8 9 10 12 12 11 9 8 7 6 5 4 4 3 3 3 3 3 4 4 5 6 7 7 8 8 9 10 11 12 13 14 15 16 17 18 18 19 19 20 20 21 21 22 23 24 25 25 26 27 27 27 27 27 27 27 27 26 27 27 28 28 29 29 30 30 31 32 32 32 32 32 31 29 27 27 27 27 27 28 29 29 29
8 8 7 8 8 10 11 12 12 11 9 8 7 6 5 5 5 5 5 5 5 5 6 6 6 7 8 9 9 10 11 12 13 14 14 15 16 17 18 19 20 20 21 21 21 22 23 24 25 26 26 26 27 27 27 27 27 27 27 27 27 27 27 27 28 28 29 30 30 31 32 32 33 33 33 33 31 29 28 28 28 28 28 28 29 29
8 8 7 8 9 10 11 12 13 12 11 10 9 7 7 6 7 6 6 6 6 7 7 7 7 7 8 9 9 10 11 12 13 14 15 16 16 17 18 19 20 21 22 22 23 23 24 24 25 26 26 26 26 27 27 27 27 27 27 27 27 27 27 27 28 28 29 30 30 31 32 32 33 33 34 34 33 32 30 28 28 28 28 28 28 28
11 10 9 9 9 10 11 12 13 13 13 12 10 9 8 7 7 7 7 7 7 7 7 8 8 7 7 8 9 10 11 12 13 14 15 16 16 17 18 19 20 21 22 23 24 24 24 25 25 26 27 26 26 27 27 27 27 27 27 27 26 27 27 28 28 28 29 29 30 31 31 32 33 33 34 34 34 34 32 30 29 29 29 29 27 27
14 13 12 12 11 11 12 12 12 13 13 12 11 10 9 8 7 8 8 8 7 7 8 8 8 8 8 8 9 9 11 12 13 14 15 16 17 17 18 19 20 21 23 23 24 25 25 25 26 26 27 27 27 27 27 27 28 28 27 27 27 26 27 27 28 29 30 30 31 31 31 32 33 33 34 34 34 34 34 33 31 29 29 30 29 27
16 16 15 15 14 14 13 13 13 13 12 12 12 11 10 9 8 8 8 8 8 8 8 8 9 9 10 10 10 10 11 12 13 14 15 16 17 18 19 20 21 22 23 24 25 26 26 26 26 26 27 27 27 28 28 28 28 28 28 28 27 27 27 27 28 29 30 31 31 32 32 32 33 34 34 35 35 35 35 35 33 31 30 30 30 29
16 17 17 17 16 16 15 15 15 14 13 13 13 12 11 10 10 9 8 8 8 9 9 9 10 10 11 11 12 12 13 14 14 15 16 17 18 19 20 20 21 23 24 25 26 26 27 27 27 27 27 28 28 28 28 28 29 29 29 29 28 28 28 28 29 29 30 31 31 32 32 33 33 34 34 35 36 36 36 36 35 33 31 30 30 30
16 17 17 18 18 18 17 17 17 16 15 14 13 13 13 12 12 11 9 9 9 10 10 11 10 10 11 12 13 14 15 16 16 16 17 18 18 19 21 21 22 24 25 26 26 27 27 28 27 28 28 28 28 29 29 29 30 30 30 30 30 29 29 29 30 30 30 31 31 32 33 33 33 34 35 35 36 37 37 37 36 35 33 31 30 30
15 16 17 17 18 18 19 19 18 17 16 16 15 14 14 14 14 13 12 11 11 11 11 12 11 11 12 12 14 15 16 17 17 18 18 19 19 20 22 23 23 24 25 26 27 27 28 28 28 29 29 29 29 29 30 30 30 31 31 31 31 31 30 30 31 31 31 32 32 33 33 34 34 34 35 35 36 37 38 38 37 36 35 34 31 30
15 15 16 17 17 18 19 20 20 19 18 18 17 16 15 14 14 15 14 14 13 13 13 13 13 13 13 13 14 16 17 19 19 19 19 20 21 21 22 23 24 25 26 26 27 28 28 29 29 29 29 30 30 30 31 31 31 32 32 32 32 32 31 31 31 31 32 32 33 33 34 34 34 34 35 35 36 37 38 39 39 38 37 35 33 31
16 16 17 17 17 17 18 19 20 20 20 20 19 18 17 16 15 15 15 14 14 15 14 14 14 14 14 14 15 16 17 19 20 19 19 21 21 22 23 24 24 25 26 27 27 28 28 29 29 30 30 30 31 31 32 32 32 33 33 32 32 32 32 32 32 32 33 33 33 34 34 34 35 35 35 36 36 37 38 38 39 40 38 37 35 33
17 17 18 18 18 18 18 19 20 20 20 20 20 19 18 17 16 15 15 15 14 15 15 15 15 15 15 15 15 16 17 18 20 20 19 20 21 22 23 23 24 25 26 26 27 28 29 30 30 31 31 31 32 32 32 33 33 33 33 33 32 33 33 33 33 33 33 33 34 34 34 35 35 35 35 36 36 37 38 39 39 40 40 38 36 34
18 18 19 19 19 19 19 20 21 22 22 21 20 19 18 18 17 16 16 15 14 15 15 15 16 16 17 17 17 17 17 18 20 20 20 21 22 22 23 24 24 25 26 27 28 29 30 31 31 32 32 32 32 33 33 33 33 33 33 33 33 33 33 33 34 34 34 34 34 34 35 35 36 36 36 37 37 38 39 39 39 40 40 39 38 36
19 19 20 20 20 20 20 20 21 22 23 22 21 20 19 18 17 16 16 15 15 15 16 17 17 18 18 19 19 19 19 19 20 21 22 22 23 23 24 25 25 26 27 29 30 31 31 32 32 32 32 32 33 33 34 34 34 34 34 34 34 34 34 34 34 35 35 35 35 35 36 36 36 37 37 37 38 38 39 40 41 40 40 39 38 36
20 20 20 21 21 21 21 21 21 22 22 22 21 21 20 19 18 17 16 16 15 16 17 17 18 19 20 21 21 21 21 21 22 23 23 24 24 25 25 26 27 28 29 30 31 31 32 33 33 33 34 33 34 34 35 36 36 36 36 35 35 35 35 35 35 35 35 35 36 36 37 37 38 38 39 39 39 39 40 41 42 42 41 40 39 37
21 21 22 22 22 22 22 21 21 21 20 20 20 20 19 19 19 18 17 16 16 16 17 18 18 20 21 22 22 23 23 24 24 25 25 26 26 26 27 27 28 29 30 30 31 32 33 34 34 35 35 34 34 35 36 37 37 37 37 37 36 36 36 36 36 36 36 36 37 37 38 38 39 39 40 40 40 41 41 42 43 43 42 40 39 38
21 22 23 23 22 22 22 21 20 20 19 19 19 19 18 18 18 18 17 16 16 16 17 18 19 20 21 22 23 24 24 25 26 26 27 27 27 27 27 28 28 29 30 31 32 33 34 34 35 36 36 35 35 36 37 38 38 37 37 36 36 35 36 36 37 37 38 38 39 39 39 39 40 41 41 42 42 42 43 43 44 44 42 41 40 38
21 22 24 23 22 21 21 21 20 20 19 19 19 19 18 17 16 16 17 17 17 17 18 19 19 21 22 23 24 24 25 25 26 26 26 26 26 27 27 28 28 29 30 31 32 33 34 35 36 37 37 37 37 36 36 37 37 36 36 36 36 36 36 37 38 39 40 40 41 41 41 41 42 42 43 43 43 43 44 44 45 44 43 41 39 38
23 23 23 23 21 19 20 21 21 20 20 20 20 20 19 17 15 15 16 17 17 17 18 19 20 22 23 24 25 25 26 26 26 26 26 26 27 27 27 28 29 30 31 32 33 35 36 37 38 39 38 38 37 36 35 35 36 36 36 36 36 36 37 38 39 41 42 43 43 43 44 44 44 44 43 44 44 44 45 45 46 45 42 40 38 37
22 23 22 21 19 18 18 20 20 21 22 22 21 20 19 17 16 15 16 17 18 18 19 20 22 23 24 25 26 27 28 28 28 28 28 28 28 28 29 30 31 32 33 34 35 36 38 39 39 39 38 38 37 36 35 34 34 35 35 35 36 36 37 39 41 43 45 47 47 46 46 45 45 44 44 44 44 45 46 46 45 44 41 38 36 35
22 22 21 20 18 18 19 20 21 22 23 22 21 20 19 18 17 16 16 17 18 18 20 22 23 25 26 28 29 30 30 30 30 31 31 31 31 31 31 32 33 34 35 36 37 38 39 39 39 39 38 37 36 35 34 34 34 34 35 35 36 37 39 42 45 48 50 52 52 50 48 46 45 45 44 44 45 45 45 45 44 41 38 36 35 34
22 21 20 20 19 20 21 22 23 24 23 22 20 19 19 18 17 16 17 17 18 19 20 22 24 25 27 29 31 32 32 32 32 32 32 33 33 34 34 35 36 36 36 37 38 39 39 39 39 38 37 37 36 35 34 34 34 34 35 36 38 41 43 46 49 52 54 55 54 52 48 46 45 45 44 43 44 44 44 43 40 37 35 34 33 33
21 21 21 21 21 22 22 23 23 24 24 23 21 20 19 18 17 16 16 17 18 19 21 23 24 26 28 30 32 32 33 33 33 33 34 34 34 35 35 36 36 37 37 37 37 38 39 39 38 36 35 35 35 34 34 34 34 35 37 39 42 46 48 51 53 55 56 56 55 51 48 46 46 44 43 42 42 42 41 38 36 35 34 35 34 34
21 22 23 23 22 22 22 22 23 23 23 23 22 21 19 17 16 16 16 17 18 20 22 23 25 27 29 31 32 32 32 32 32 33 33 33 34 34 35 35 35 36 36 36 37 38 38 37 35 34 34 34 34 34 34 34 36 38 41 44 47 50 53 54 56 57 57 56 55 52 49 47 45 42 40 40 40 39 37 34 34 34 35 35 35 34
Wind_Direction
33 28 21 3 351 337 314 294 278 267 262 260 252 246 243 240 241 242 241 243 242 238 232 225 224 226 232 234 226 220 217 214 217 223 234 245 257 270 281 288 292 297 300 301 298 293 288 284 284 288 292 288 277 286 314 322 314 304 298 291 288 291 291 289 287 285 285 283 279 275 274 273 271 270 269 270 272 276 280 281 279 277 274 272 269 267
29 23 13 0 354 345 328 309 285 267 259 255 251 250 247 237 232 233 234 236 236 229 220 217 217 220 226 228 221 218 220 219 219 225 235 245 257 270 281 289 293 296 295 295 298 295 290 284 279 278 275 271 265 268 298 316 312 303 296 291 288 288 288 287 286 283 281 279 276 273 272 270 269 268 266 266 267 270 274 276 277 277 276 274 272 269
24 21 11 3 359 353 345 334 313 275 248 244 246 245 244 239 229 224 224 223 225 219 213 213 212 215 221 222 218 216 218 219 222 230 238 248 260 271 282 287 289 290 288 292 297 298 298 286 271 270 273 266 259 258 280 303 307 301 293 289 286 285 284 283 282 282 282 280 276 273 271 270 269 268 267 266 265 266 269 271 273 274 275 274 273 272
21 23 17 12 7 6 10 6 356 336 249 225 245 242 230 231 225 219 216 212 214 216 211 211 210 214 220 219 219 217 216 219 224 233 242 253 265 273 281 284 286 286 284 291 300 308 313 292 256 260 287 282 266 258 269 288 297 296 291 287 286 285 285 283 281 280 278 277 276 273 271 271 271 270 269 268 267 268 269 269 269 269 270 271 272 272
25 27 23 21 18 21 25 19 13 359 348 283 249 237 202 209 213 211 209 205 207 211 209 208 207 213 220 219 220 221 222 225 228 237 246 255 266 272 278 287 296 293 281 291 304 315 324 307 247 264 297 303 296 279 278 285 289 290 288 287 286 286 286 286 284 281 277 275 275 275 273 272 271 271 271 270 270 270 271 271 269 267 265 266 268 269
28 29 26 28 27 29 31 24 27 30 9 17 274 210 172 186 196 197 200 199 201 203 205 207 206 210 219 219 220 224 228 230 232 239 247 253 262 270 276 286 300 303 291 298 309 313 320 321 301 301 304 310 313 307 302 297 292 290 288 287 286 286 286 286 285 283 281 279 278 277 275 274 273 271 269 269 270 270 271 272 271 267 264 263 264 266
31 32 30 31 31 33 35 31 38 53 38 39 67 94 130 164 181 187 193 195 194 196 201 205 206 210 217 219 220 224 225 227 232 238 245 252 261 272 278 281 288 300 304 306 310 310 312 317 318 316 316 316 315 312 309 305 299 295 292 290 288 286 286 286 286 285 285 283 281 278 276 275 275 272 270 268 268 269 271 271 270 268 264 262 262 263
36 37 35 34 35 35 38 39 48 62 61 60 80 93 106 134 159 170 181 188 190 195 200 204 206 212 218 220 223 227 228 229 234 240 246 254 264 275 281 284 290 301 306 306 307 308 311 316 319 319 318 316 313 311 309 306 303 300 297 294 291 289 288 286 286 285 285 284 282 279 276 275 273 271 270 268 267 267 268 269 268 266 264 262 261 261
41 41 40 38 39 39 42 46 51 61 70 76 83 92 99 111 136 156 168 179 187 193 200 204 207 211 217 220 225 230 232 234 238 243 251 259 269 278 284 289 296 300 303 305 306 309 312 315 317 317 315 314 312 311 310 309 308 306 304 301 297 294 291 289 287 285 284 282 281 278 275 273 272 270 269 268 268 267 266 266 265 264 263 262 262 262
45 46 44 42 42 42 45 51 55 61 70 76 78 84 93 100 119 144 157 170 182 191 198 204 207 211 217 222 226 230 234 238 244 250 257 264 273 282 288 292 294 296 299 303 307 311 315 317 317 317 316 315 316 316 316 314 312 310 307 304 301 299 296 293 291 288 285 282 280 277 274 272 271 270 269 269 269 268 266 265 264 263 262 262 262 262
46 49 49 46 45 45 48 54 58 64 72 77 78 81 87 93 105 125 141 159 177 188 198 205 207 211 218 223 228 233 238 243 250 256 263 270 277 285 291 292 293 297 301 307 312 316 319 319 319 318 318 318 319 318 317 315 313 311 308 305 302 299 297 295 293 292 290 287 284 280 276 273 271 270 269 269 269 268 267 265 263 263 263 263 262 261
45 49 52 51 50 49 51 56 59 65 75 79 78 82 88 93 101 114 129 150 171 188 199 204 207 213 219 224 229 234 240 246 251 257 262 268 275 283 289 291 295 301 306 312 317 321 321 321 320 319 319 320 319 319 318 316 314 312 310 307 304 301 298 296 295 293 292 290 288 285 281 277 273 271 269 269 268 267 266 265 265 264 264 264 264 261
43 46 50 53 54 52 54 59 61 65 74 81 82 87 96 105 112 121 130 145 167 183 188 195 204 213 222 227 231 235 239 244 248 253 257 263 271 280 288 293 299 306 311 316 319 320 320 320 320 320 321 322 322 322 322 321 319 317 314 311 309 306 304 301 299 296 295 293 291 289 286 282 277 274 271 269 268 266 266 266 266 265 265 264 264 262
41 44 46 50 53 52 54 61 65 67 73 83 90 96 105 116 123 130 138 148 165 173 178 190 201 213 225 231 232 234 236 240 243 247 253 262 272 283 292 298 307 313 316 317 317 319 319 319 320 321 323 324 325 325 325 325 323 322 320 317 314 312 310 308 305 303 300 297 295 293 290 287 282 278 274 271 269 267 266 266 265 265 264 263 263 262
40 42 42 45 49 50 54 60 65 70 74 80 88 96 103 111 119 128 138 150 165 171 180 195 200 205 217 223 223 226 230 235 241 247 256 267 279 289 298 306 312 315 317 317 318 320 319 320 322 324 325 327 328 329 328 327 326 325 323 321 319 316 314 312 310 307 305 303 301 298 295 292 288 283 278 274 271 268 266 265 264 264 264 262 262 262
39 40 40 42 43 45 55 60 64 72 77 79 82 87 93 100 107 115 127 142 155 161 174 192 196 196 207 214 217 223 232 239 247 256 266 278 288 296 303 308 312 314 316 318 319 321 321 323 326 327 330 332 333 333 332 331 330 328 326 324 321 319 316 314 312 311 309 308 306 303 300 296 292 287 283 278 275 272 269 266 264 263 262 262 261 261
39 39 40 41 39 39 48 53 56 65 74 80 82 82 86 92 95 99 107 117 128 137 155 179 188 192 203 216 224 234 246 255 263 273 283 292 297 301 304 308 313 317 319 320 322 324 326 328 331 332 335 336 337 337 337 337 335 333 331 328 325 323 320 318 316 314 313 312 310 308 304 300 295 290 285 281 277 274 271 269 267 264 263 262 261 261
41 40 39 39 37 37 40 41 44 55 65 75 79 80 86 89 89 91 95 100 106 112 120 133 157 183 199 215 233 246 258 270 283 292 296 298 301 305 310 315 318 320 323 326 329 330 331 333 335 337 338 338 340 341 342 342 340 338 336 334 332 329 326 323 321 319 317 316 315 314 311 306 300 294 288 284 280 276 273 271 269 268 265 264 263 262
41 41 41 41 38 37 36 34 37 46 56 65 72 77 81 84 86 91 93 95 97 97 97 104 120 158 191 217 247 258 266 280 293 298 298 301 310 317 319 321 322 324 328 331 333 332 333 335 336 337 338 339 341 342 343 344 343 342 340 339 337 335 333 330 328 326 324 323 322 321 318 314 307 300 293 288 284 281 277 274 272 271 268 266 265 263
39 40 41 42 42 42 41 36 35 42 48 56 63 66 70 75 81 84 85 87 88 87 84 93 103 136 207 244 270 276 282 295 303 303 305 312 322 324 321 322 324 327 330 332 332 332 332 333 334 335 337 338 339 341 343 344 343 343 342 342 342 340 338 336 334 332 330 328 328 327 324 321 317 312 305 297 291 287 283 279 276 274 272 270 267 265
39 38 38 37 37 39 41 41 41 43 44 47 51 50 52 59 64 66 66 67 70 68 56 37 355 324 296 295 304 305 307 314 313 310 314 320 326 323 320 323 324 326 328 328 327 328 330 331 333 334 335 335 337 339 341 342 342 342 343 343 343 343 342 340 338 336 333 331 330 330 327 322 319 320 318 312 304 297 291 285 280 277 275 273 271 268
39 38 37 34 32 32 34 37 40 41 40 41 39 34 32 35 40 47 46 40 37 30 18 356 334 327 320 317 320 318 316 316 314 314 317 321 323 320 319 321 322 323 324 324 324 326 327 328 330 332 333 334 335 337 339 340 341 342 343 344 344 344 343 343 341 339 336 334 332 331 328 323 318 317 319 319 315 310 302 294 287 281 277 275 273 271
40 40 38 35 31 28 27 29 32 32 31 30 25 18 17 16 18 25 25 17 9 3 353 335 325 325 322 319 318 316 313 313 313 315 317 319 320 318 317 318 319 320 321 323 325 324 323 325 328 330 330 331 333 334 336 337 338 340 342 343 344 344 344 344 343 342 339 336 334 332 329 326 320 315 314 316 317 315 311 303 295 288 281 276 273 272
40 39 39 36 31 27 23 22 22 20 18 16 11 5 6 6 4 7 6 1 354 346 337 327 321 320 318 316 314 313 312 312 314 315 316 318 318 316 315 315 316 318 322 325 324 321 320 323 326 327 327 328 330 332 333 335 336 338 340 342 343 344 345 345 344 343 341 339 336 334 332 329 326 321 316 315 317 317 315 310 302 294 287 281 275 272
38 38 37 36 33 30 25 20 16 13 9 5 2 360 1 2 359 354 349 349 347 339 330 323 319 317 316 313 311 311 311 311 313 314 315 316 315 314 314 315 318 321 323 323 320 318 320 323 325 325 326 327 328 330 332 333 335 337 339 341 343 344 345 345 345 344 343 341 338 336 334 332 330 327 322 318 318 319 319 315 309 300 292 287 280 275
34 35 34 34 34 33 30 24 18 15 9 4 2 359 355 354 352 347 343 343 339 331 324 317 314 312 311 309 307 305 304 306 308 312 314 315 314 315 316 318 321 323 323 321 319 319 322 323 324 325 325 327 328 329 330 332 333 336 338 340 342 344 345 345 345 345 344 342 340 338 336 334 332 330 328 324 321 321 321 320 315 307 299 292 286 280
30 30 29 28 29 30 29 27 24 21 19 15 9 357 348 348 353 350 346 341 330 321 315 311 309 309 306 304 301 299 301 305 309 313 315 315 314 316 318 321 323 323 321 320 320 322 323 323 324 325 326 327 328 329 330 331 333 335 337 339 341 343 344 345 345 345 344 343 341 339 337 336 334 332 331 329 326 323 322 321 320 315 307 300 293 287
27 24 22 22 23 26 26 26 26 25 24 22 16 8 357 352 358 359 353 342 327 321 319 314 313 314 313 309 307 307 309 311 313 315 316 315 315 317 319 321 322 321 321 322 323 324 324 324 324 326 327 327 328 329 330 331 332 334 336 338 340 341 343 344 344 344 344 343 342 340 338 336 335 334 332 331 329 325 322 320 319 319 315 308 301 294
29 20 15 13 15 21 24 24 25 25 24 21 17 13 5 356 356 355 350 346 341 336 332 329 328 328 325 322 318 315 314 314 315 316 316 316 317 318 320 320 321 321 321 323 325 325 325 325 326 327 328 328 328 329 329 330 332 333 335 337 338 340 341 341 342 342 342 342 341 340 339 337 335 334 332 331 328 326 323 319 318 317 316 314 309 302
30 24 17 10 9 13 17 20 22 23 21 18 14 10 4 358 353 348 342 340 339 336 331 330 332 331 327 323 318 314 312 312 313 315 316 317 319 320 321 321 321 322 323 325 326 327 327 327 327 327 328 328 328 328 329 329 330 331 334 336 337 338 338 339 339 340 340 339 339 339 338 337 335 333 332 330 328 326 324 321 317 315 313 313 312 308
29 26 23 18 12 11 12 14 16 17 16 14 12 7 0 354 349 343 335 330 329 329 328 326 325 327 325 320 315 311 310 311 312 314 316 319 320 321 322 322 323 324 324 326 326 327 327 328 328 328 328 328 328 328 328 328 328 329 332 335 336 336 336 336 335 335 336 337 338 338 337 335 334 333 331 330 328 327 325 322 318 315 312 310 309 309
26 24 23 21 17 13 11 9 8 8 8 9 8 2 354 346 343 341 334 326 323 321 321 321 321 324 326 320 314 311 310 311 313 315 316 318 320 321 322 323 324 324 324 325 326 326 327 328 329 328 328 328 328 327 327 326 326 327 330 332 334 333 332 331 331 331 333 335 336 336 336 334 333 332 331 330 328 328 326 324 320 316 312 309 307 306
18 17 16 16 15 14 10 5 2 0 360 1 1 358 350 339 334 335 332 324 320 317 316 319 321 322 323 319 314 311 310 310 313 315 316 317 319 320 321 322 323 323 323 324 325 326 327 328 328 327 327 327 327 326 325 324 324 325 328 329 330 330 329 328 328 328 329 331 333 334 334 333 332 331 330 329 328 327 326 324 322 318 312 309 306 304
7 7 7 6 7 7 4 0 358 356 354 353 351 349 345 336 330 330 331 326 322 319 318 319 319 319 318 315 312 311 310 310 313 314 315 316 317 318 319 321 321 321 322 323 324 325 326 327 327 327 326 326 326 325 323 323 323 323 324 325 326 326 326 326 326 326 326 327 329 330 331 331 331 330 329 328 327 326 325 323 322 320 315 309 305 304
360 359 358 358 356 355 354 352 352 352 350 347 342 338 336 333 330 329 331 331 327 324 323 321 320 318 316 312 310 309 310 311 312 313 313 314 316 317 318 319 319 319 320 322 323 324 325 326 326 326 325 325 324 323 322 322 322 321 321 322 323 324 324 323 323 322 323 325 326 327 329 329 329 329 328 327 326 325 324 323 321 320 317 312 307 303
355 353 352 351 349 346 344 343 344 344 343 340 337 334 330 327 327 328 330 331 329 327 324 322 322 321 318 315 311 309 310 310 310 312 313 313 315 316 316 317 317 318 319 321 322 324 325 326 326 325 325 324 323 322 321 320 320 319 319 320 321 321 320 320 320 320 321 323 324 326 327 328 328 328 327 327 326 324 323 322 321 320 318 315 310 304
351 350 347 345 343 341 338 337 336 336 335 334 333 332 328 323 321 322 324 327 327 327 326 325 325 324 321 318 313 310 309 309 310 313 313 313 313 314 314 315 315 316 318 320 322 324 325 325 326 325 324 323 322 321 320 319 318 318 318 318 318 317 317 317 318 318 319 321 322 324 326 327 327 327 326 326 325 324 322 320 320 319 318 315 312 307
347 345 343 340 339 336 333 331 329 328 328 328 327 325 324 320 316 313 314 319 323 325 326 326 325 324 322 319 315 311 309 307 308 311 311 310 310 310 310 311 312 314 316 319 321 323 324 324 325 324 324 323 322 322 321 320 318 317 316 316 315 315 315 316 316 317 318 319 321 323 325 326 326 326 326 325 323 322 320 319 318 318 317 315 313 310
344 340 337 336 335 333 330 328 324 322 322 323 321 318 317 315 313 310 308 311 318 323 324 324 323 323 322 320 317 313 310 308 307 308 308 307 307 307 308 309 310 312 315 318 320 321 323 323 324 324 324 324 323 323 321 319 317 316 315 314 314 313 313 315 316 317 318 319 321 323 324 324 325 325 324 323 322 320 318 317 316 316 316 315 313 311
339 336 333 333 332 331 329 328 324 322 321 321 318 315 313 311 310 309 306 307 313 320 323 323 322 321 322 322 320 317 314 311 309 309 308 307 307 307 308 309 311 313 315 318 319 321 322 323 323 324 324 324 322 321 320 318 316 315 314 313 313 313 314 316 317 317 318 320 321 322 323 324 324 324 323 322 320 318 316 315 314 314 314 314 313 311
334 332 331 331 330 330 330 329 326 323 321 320 317 313 311 309 307 308 307 306 310 316 321 322 322 323 323 324 323 321 319 316 313 311 311 311 310 311 312 312 314 316 317 319 321 321 322 322 322 322 322 322 321 320 319 318 317 316 315 315 315 315 316 317 318 318 320 321 321 322 323 324 324 323 322 320 319 317 314 312 312 312 312 312 312 311
330 329 330 331 330 330 330 329 327 323 321 318 314 311 309 307 305 306 307 306 307 312 317 321 323 324 324 324 324 324 322 321 319 317 317 316 316 316 316 316 317 318 319 320 320 319 319 319 320 321 321 322 322 321 319 318 318 318 318 318 318 318 318 319 319 320 320 321 322 323 323 324 324 323 321 319 317 315 313 311 310 310 311 310 310 310
327 327 330 333 333 331 331 330 327 323 320 316 311 307 305 302 301 303 304 304 304 308 314 320 323 323 324 325 326 326 326 325 324 323 323 322 321 320 319 319 319 319 318 317 317 316 317 319 320 321 322 322 321 319 318 318 320 320 320 320 320 320 320 320 320 320 321 322 322 323 323 323 323 322 320 318 316 314 312 310 309 310 310 310 309 308
325 327 331 336 336 333 331 330 327 324 321 316 310 307 304 301 298 300 301 303 304 308 314 320 323 323 325 326 328 329 329 328 327 326 326 324 323 322 321 319 319 318 317 316 316 317 318 319 320 321 321 321 320 320 320 320 321 321 320 320 321 320 321 321 321 321 322 323 324 324 324 323 322 321 319 317 315 313 311 309 309 309 310 310 308 307
325 329 332 336 339 336 330 327 325 324 320 316 312 310 309 306 301 298 300 304 306 309 315 320 322 324 326 328 329 330 329 328 327 327 325 324 323 322 321 320 319 318 317 317 317 318 319 320 321 322 322 322 322 322 322 321 321 321 321 321 322 322 323 323 323 323 324 325 326 325 325 324 322 320 318 316 314 312 310 309 309 310 311 311 308 306
325 331 335 337 339 337 328 323 321 320 317 317 317 316 315 312 306 301 301 305 307 311 316 321 323 325 327 329 330 329 328 327 327 326 325 324 324 324 323 322 320 319 319 319 320 321 322 323 324 324 324 323 323 324 324 322 322 322 323 323 323 323 324 324 324 325 326 327 327 326 325 324 322 319 317 314 312 311 310 309 310 311 312 311 308 305
326 333 335 335 335 332 323 317 316 315 315 319 322 321 318 315 310 307 306 307 310 314 318 321 323 326 328 330 330 329 327 326 326 325 325 325 325 325 324 323 323 323 323 323 324 325 325 325 325 325 324 324 325 326 325 324 323 324 324 324 324 325 325 326 327 327 328 328 327 326 324 323 321 318 316 313 312 311 310 311 312 314 314 313 310 306
329 332 332 330 327 321 315 313 313 314 316 319 322 321 318 315 312 311 310 310 312 315 319 321 324 326 328 329 329 328 327 326 326 326 326 327 327 327 327 327 327 327 327 327 327 326 326 325 326 326 326 325 326 327 326 326 326 326 326 326 326 328 329 330 329 329 328 328 327 326 324 322 320 318 315 313 312 312 312 313 315 317 317 315 313 310
329 328 325 323 319 314 312 313 314 315 317 320 321 320 319 318 316 314 312 311 312 315 319 321 323 326 328 328 328 328 327 328 328 328 328 328 329 329 329 328 328 328 328 327 326 325 325 326 327 327 327 326 327 327 328 328 328 328 329 329 330 331 332 331 330 329 328 327 326 325 323 321 320 317 315 314 313 313 315 316 318 320 319 318 316 313
323 318 317 318 317 315 314 314 314 315 316 319 321 320 320 321 319 315 312 311 313 315 318 320 323 326 327 327 326 327 328 329 329 329 329 328 328 328 328 328 327 327 326 325 325 325 326 328 328 327 326 326 327 329 330 330 330 331 333 333 333 333 332 331 330 329 327 326 325 324 323 322 320 317 315 315 315 316 318 320 321 322 322 321 319 316
312 312 317 319 319 318 316 315 314 314 316 318 319 320 322 323 319 314 311 312 314 316 318 321 323 325 325 325 325 326 328 328 328 328 327 326 326 326 326 326 326 325 325 326 327 327 328 328 327 327 327 328 330 331 332 333 334 334 334 334 334 333 332 331 330 328 327 325 324 323 323 322 320 318 317 317 317 318 320 321 323 324 325 323 322 321
Height
5799 5799 5799 5798 5797 5796 5795 5795 5794 5793 5792 5792 5793 5792 5792 5793 5794 5795 5797 5799 5801 5804 5805 5807 5808 5810 5811 5812 5813 5813 5814 5815 5816 5816 5817 5818 5818 5817 5817 5818 5818 5818 5819 5819 5819 5819 5819 5820 5819 5818 5818 5817 5816 5814 5813 5813 5812 5812 5811 5810 5810 5809 5809 5808 5807 5807 5806 5806 5805 5805 5804 5803 5803 5803 5802 5802 5802 5802 5802 5802 5802 5801 5801 5800 5800 5799
5799 5799 5798 5797 5796 5795 5794 5793 5791 5791 5790 5790 5790 5789 5788 5790 5792 5793 5795 5797 5799 5802 5804 5805 5807 5809 5810 5811 5812 5813 5813 5814 5815 5816 5816 5817 5817 5817 5817 5817 5817 5818 5818 5818 5818 5818 5818 5818 5818 5817 5816 5816 5814 5813 5812 5812 5811 5810 5810 5809 5808 5808 5807 5806 5806 5805 5805 5804 5803 5803 5802 5801 5800 5800 5800 5799 5799 5799 5799 5799 5798 5798 5798 5798 5798 5797
5799 5799 5798 5797 5796 5794 5793 5791 5789 5788 5788 5788 5787 5786 5786 5786 5789 5791 5792 5795 5798 5800 5802 5803 5806 5808 5810 5811 5812 5813 5813 5814 5814 5815 5815 5816 5816 5817 5817 5817 5817 5817 5817 5817 5817 5816 5816 5816 5815 5816 5815 5814 5813 5812 5811 5811 5810 5809 5808 5807 5806 5805 5805 5804 5804 5803 5803 5802 5801 5800 5799 5798 5798 5797 5797 5797 5797 5797 5796 5796 5795 5795 5795 5795 5795 5795
5800 5799 5798 5797 5796 5794 5792 5789 5787 5786 5786 5786 5784 5783 5784 5783 5785 5788 5790 5794 5796 5798 5800 5802 5805 5807 5809 5810 5811 5812 5813 5814 5814 5814 5814 5815 5816 5816 5817 5817 5816 5816 5816 5816 5816 5815 5813 5810 5811 5813 5813 5811 5811 5811 5811 5810 5808 5807 5806 5805 5804 5803 5803 5802 5801 5801 5800 5799 5798 5797 5797 5796 5795 5795 5794 5794 5794 5794 5793 5792 5792 5792 5791 5791 5791 5791
5800 5799 5798 5797 5796 5793 5791 5788 5786 5784 5783 5783 5782 5781 5782 5781 5783 5785 5788 5791 5794 5796 5798 5800 5803 5806 5808 5810 5811 5812 5813 5813 5814 5814 5814 5815 5815 5816 5816 5816 5815 5814 5814 5815 5814 5813 5811 5808 5809 5812 5811 5810 5810 5809 5809 5808 5807 5805 5804 5803 5802 5801 5800 5800 5799 5798 5797 5796 5795 5794 5793 5793 5793 5792 5792 5791 5791 5791 5790 5790 5789 5788 5788 5788 5788 5788
5799 5798 5798 5797 5795 5792 5790 5787 5785 5784 5782 5781 5781 5780 5781 5781 5782 5783 5786 5790 5793 5796 5798 5799 5802 5805 5807 5809 5810 5811 5812 5813 5814 5814 5814 5815 5815 5815 5815 5815 5815 5814 5813 5813 5812 5812 5811 5810 5809 5810 5809 5808 5808 5807 5806 5805 5804 5803 5802 5801 5800 5799 5798 5797 5796 5795 5794 5793 5792 5792 5791 5790 5790 5789 5788 5788 5788 5787 5787 5786 5786 5785 5785 5784 5784 5784
5799 5798 5797 5795 5793 5791 5790 5788 5785 5783 5782 5781 5781 5780 5781 5782 5783 5784 5786 5789 5793 5795 5797 5799 5802 5804 5806 5808 5809 5810 5811 5812 5813 5813 5813 5814 5814 5814 5814 5813 5813 5813 5813 5812 5811 5811 5810 5810 5809 5808 5807 5806 5805 5804 5803 5802 5801 5800 5799 5798 5797 5796 5795 5794 5793 5792 5791 5789 5789 5789 5788 5787 5786 5785 5785 5785 5784 5784 5783 5783 5782 5782 5781 5781 5781 5781
5799 5798 5796 5794 5793 5792 5791 5788 5785 5783 5782 5782 5782 5781 5781 5782 5783 5784 5786 5789 5793 5795 5797 5800 5802 5804 5805 5807 5808 5809 5811 5812 5812 5812 5812 5813 5813 5813 5813 5812 5812 5812 5811 5811 5810 5810 5809 5807 5806 5805 5804 5803 5802 5801 5800 5799 5797 5796 5795 5794 5793 5792 5791 5790 5789 5788 5787 5786 5785 5785 5784 5783 5782 5781 5781 5780 5780 5780 5780 5779 5779 5778 5778 5777 5777 5777
5800 5798 5797 5795 5794 5793 5792 5789 5786 5785 5784 5784 5783 5783 5783 5783 5784 5785 5787 5790 5793 5796 5798 5800 5802 5804 5805 5806 5807 5809 5810 5810 5811 5811 5812 5812 5812 5812 5812 5812 5811 5810 5810 5809 5809 5808 5806 5805 5804 5802 5801 5800 5799 5798 5797 5796 5794 5793 5792 5790 5789 5788 5787 5786 5785 5784 5783 5782 5781 5781 5780 5779 5778 5777 5776 5775 5775 5775 5776 5776 5775 5774 5774 5773 5773 5773
5800 5799 5798 5796 5795 5794 5793 5791 5788 5787 5786 5785 5785 5785 5786 5786 5786 5788 5790 5792 5794 5796 5798 5800 5802 5804 5805 5806 5807 5808 5809 5809 5809 5810 5810 5811 5811 5811 5811 5810 5810 5809 5808 5807 5806 5805 5804 5802 5801 5800 5799 5797 5796 5795 5794 5793 5792 5791 5789 5788 5787 5785 5784 5782 5781 5780 5779 5778 5777 5776 5776 5775 5774 5773 5772 5770 5770 5770 5770 5770 5770 5769 5769 5769 5769 5769
5800 5800 5799 5797 5796 5796 5794 5792 5791 5789 5788 5787 5787 5788 5788 5789 5790 5791 5792 5794 5796 5798 5799 5801 5802 5804 5805 5806 5807 5807 5808 5808 5808 5809 5809 5809 5809 5809 5809 5808 5808 5807 5806 5805 5804 5803 5801 5800 5799 5797 5796 5795 5794 5793 5792 5790 5789 5788 5787 5785 5784 5782 5781 5779 5778 5776 5775 5774 5773 5772 5771 5770 5769 5768 5767 5766 5765 5765 5765 5765 5764 5764 5764 5764 5764 5763
5801 5801 5800 5799 5798 5797 5795 5794 5793 5792 5790 5790 5791 5791 5791 5792 5793 5794 5795 5797 5798 5799 5799 5801 5802 5804 5804 5805 5806 5807 5807 5808 5808 5808 5808 5808 5808 5808 5807 5807 5806 5805 5804 5803 5802 5800 5799 5798 5796 5795 5794 5792 5791 5790 5789 5787 5786 5784 5783 5782 5780 5779 5777 5775 5774 5773 5771 5770 5769 5768 5766 5766 5765 5764 5763 5762 5761 5760 5760 5759 5759 5758 5758 5758 5758 5758
5802 5801 5800 5800 5799 5798 5797 5796 5795 5794 5793 5793 5794 5794 5794 5795 5796 5797 5797 5798 5799 5799 5800 5801 5802 5803 5804 5805 5805 5806 5806 5807 5807 5807 5807 5807 5807 5806 5806 5805 5804 5803 5803 5801 5800 5799 5798 5796 5795 5793 5792 5790 5789 5787 5786 5784 5783 5781 5779 5778 5776 5775 5773 5772 5770 5769 5767 5766 5764 5763 5762 5761 5760 5759 5758 5757 5756 5756 5755 5753 5752 5752 5752 5753 5752 5751
5802 5801 5801 5801 5800 5799 5798 5797 5797 5797 5795 5795 5796 5797 5797 5797 5797 5798 5798 5799 5799 5799 5800 5801 5802 5803 5803 5804 5804 5805 5805 5805 5805 5805 5806 5805 5805 5805 5804 5803 5803 5802 5801 5800 5799 5798 5796 5795 5793 5792 5790 5789 5787 5785 5784 5782 5780 5779 5777 5775 5773 5772 5770 5768 5767 5765 5764 5762 5760 5759 5757 5756 5755 5754 5753 5752 5751 5751 5750 5748 5747 5746 5746 5746 5746 5745
5802 5802 5801 5801 5800 5800 5799 5798 5799 5798 5797 5797 5797 5797 5798 5798 5798 5799 5799 5800 5800 5800 5801 5801 5802 5802 5803 5803 5803 5803 5804 5804 5804 5804 5804 5804 5804 5803 5803 5802 5801 5800 5800 5799 5797 5796 5795 5794 5792 5791 5789 5788 5786 5784 5782 5781 5779 5777 5775 5773 5771 5769 5767 5765 5763 5762 5760 5758 5757 5755 5753 5751 5750 5749 5748 5746 5745 5744 5744 5743 5742 5741 5740 5740 5740 5740
5803 5802 5802 5801 5801 5801 5800 5800 5800 5799 5798 5799 5798 5798 5798 5799 5799 5799 5799 5800 5800 5801 5801 5801 5801 5802 5802 5802 5802 5802 5802 5803 5803 5803 5803 5802 5802 5802 5802 5801 5800 5799 5798 5797 5796 5795 5794 5793 5791 5790 5788 5786 5784 5783 5781 5779 5777 5775 5773 5771 5769 5767 5764 5762 5760 5758 5756 5755 5753 5751 5749 5746 5744 5743 5741 5740 5739 5738 5737 5737 5736 5735 5734 5734 5734 5733
5804 5803 5803 5802 5802 5802 5801 5801 5801 5800 5800 5800 5800 5799 5799 5799 5799 5799 5800 5800 5800 5801 5801 5801 5801 5801 5801 5801 5801 5801 5801 5801 5801 5801 5801 5801 5801 5801 5801 5800 5799 5798 5797 5796 5795 5794 5793 5791 5790 5788 5786 5784 5782 5781 5779 5777 5775 5773 5771 5769 5767 5764 5762 5760 5758 5756 5753 5751 5749 5746 5744 5741 5739 5737 5735 5733 5732 5731 5731 5730 5729 5729 5728 5728 5728 5727
5805 5804 5803 5803 5803 5802 5802 5801 5801 5800 5800 5800 5800 5800 5800 5800 5800 5800 5800 5800 5801 5801 5801 5801 5801 5801 5801 5801 5801 5801 5801 5800 5800 5800 5800 5800 5800 5800 5799 5798 5797 5796 5795 5794 5793 5792 5791 5789 5787 5786 5784 5782 5780 5778 5777 5775 5773 5771 5768 5766 5764 5762 5760 5757 5755 5753 5750 5748 5745 5742 5739 5736 5733 5731 5729 5727 5726 5725 5724 5723 5722 5722 5722 5722 5722 5722
5806 5805 5805 5804 5803 5803 5802 5802 5801 5801 5801 5800 5801 5801 5801 5801 5801 5801 5801 5801 5801 5801 5801 5801 5801 5801 5801 5801 5801 5800 5800 5800 5800 5800 5799 5799 5798 5798 5797 5796 5795 5794 5793 5792 5791 5790 5788 5787 5785 5783 5782 5780 5778 5776 5774 5772 5770 5768 5766 5763 5761 5759 5756 5754 5752 5749 5747 5744 5741 5738 5734 5731 5728 5726 5724 5721 5720 5719 5718 5717 5716 5715 5715 5715 5715 5715
5807 5806 5805 5805 5804 5804 5803 5803 5802 5802 5801 5801 5801 5801 5801 5801 5801 5801 5801 5801 5801 5801 5801 5801 5801 5801 5801 5801 5800 5800 5800 5799 5799 5799 5798 5798 5797 5796 5795 5794 5793 5792 5791 5790 5789 5788 5786 5784 5783 5781 5779 5778 5776 5774 5772 5769 5767 5765 5763 5761 5758 5756 5753 5751 5748 5746 5743 5740 5737 5734 5730 5727 5724 5722 5719 5717 5715 5714 5712 5711 5710 5709 5708 5708 5708 5708
5808 5807 5806 5805 5805 5804 5804 5803 5803 5802 5802 5801 5801 5801 5801 5801 5801 5801 5801 5801 5801 5801 5801 5801 5801 5801 5800 5800 5799 5799 5798 5798 5798 5797 5797 5796 5796 5795 5794 5793 5792 5791 5790 5789 5787 5786 5784 5782 5781 5779 5777 5775 5773 5771 5769 5767 5765 5763 5760 5758 5756 5753 5750 5747 5745 5742 5739 5736 5733 5730 5727 5724 5721 5718 5716 5713 5711 5709 5708 5706 5705 5704 5703 5702 5702 5702
5809 5808 5807 5806 5805 5804 5804 5803 5803 5802 5802 5802 5802 5801 5801 5801 5801 5801 5801 5801 5801 5801 5800 5800 5800 5800 5799 5799 5798 5797 5797 5797 5796 5796 5795 5795 5794 5794 5793 5792 5791 5789 5788 5787 5786 5784 5782 5781 5779 5777 5775 5773 5771 5769 5767 5765 5763 5760 5758 5756 5753 5750 5748 5745 5742 5739 5736 5733 5730 5727 5724 5721 5718 5715 5713 5710 5707 5705 5703 5702 5700 5699 5698 5697 5697 5696
5810 5809 5808 5807 5806 5805 5804 5803 5803 5802 5802 5802 5802 5801 5801 5801 5801 5801 5801 5801 5800 5800 5800 5799 5799 5799 5798 5797 5797 5796 5796 5795 5795 5794 5794 5794 5793 5792 5791 5790 5789 5788 5787 5785 5784 5782 5780 5779 5777 5775 5773 5771 5769 5767 5765 5763 5760 5758 5756 5753 5751 5748 5745 5742 5739 5736 5734 5731 5727 5724 5721 5718 5715 5712 5709 5707 5704 5701 5699 5697 5695 5694 5693 5692 5691 5691
5810 5809 5808 5807 5806 5805 5804 5803 5803 5802 5802 5802 5802 5802 5801 5801 5801 5801 5800 5800 5800 5799 5799 5799 5798 5798 5797 5796 5796 5795 5794 5794 5793 5793 5792 5792 5791 5791 5790 5789 5788 5787 5785 5783 5782 5780 5778 5777 5775 5773 5771 5769 5767 5765 5763 5760 5758 5756 5753 5751 5748 5745 5743 5740 5737 5734 5731 5728 5725 5722 5718 5715 5712 5709 5706 5704 5701 5698 5695 5693 5691 5689 5688 5687 5686 5685
5810 5809 5809 5808 5806 5805 5804 5804 5803 5803 5803 5802 5802 5802 5801 5801 5801 5800 5800 5800 5799 5799 5798 5798 5797 5797 5796 5795 5795 5794 5793 5793 5792 5792 5791 5790 5790 5789 5788 5787 5786 5784 5783 5781 5780 5778 5776 5774 5772 5770 5768 5766 5764 5762 5760 5758 5755 5753 5751 5748 5745 5743 5740 5737 5734 5731 5728 5724 5721 5719 5715 5712 5709 5706 5703 5700 5698 5695 5692 5689 5686 5684 5683 5682 5680 5680
5810 5810 5809 5808 5807 5806 5806 5805 5804 5804 5803 5803 5802 5802 5801 5801 5801 5800 5800 5799 5799 5798 5798 5797 5796 5796 5795 5795 5794 5793 5792 5792 5791 5790 5789 5789 5788 5787 5786 5785 5783 5782 5780 5779 5778 5776 5774 5772 5770 5768 5766 5763 5761 5759 5757 5755 5752 5750 5748 5745 5742 5739 5737 5734 5731 5728 5725 5721 5718 5715 5712 5709 5706 5703 5700 5697 5694 5692 5689 5686 5682 5680 5678 5677 5676 5675
5810 5809 5809 5808 5808 5807 5806 5806 5805 5804 5804 5803 5802 5802 5802 5801 5801 5800 5800 5799 5799 5798 5797 5796 5796 5795 5794 5794 5793 5792 5791 5790 5789 5788 5788 5787 5785 5784 5783 5782 5781 5779 5778 5777 5775 5773 5771 5769 5767 5765 5763 5761 5758 5756 5753 5751 5749 5746 5744 5741 5739 5736 5733 5730 5728 5725 5722 5719 5715 5712 5709 5706 5703 5700 5697 5694 5691 5688 5686 5683 5680 5677 5674 5673 5671 5670
5810 5809 5809 5809 5808 5807 5806 5806 5805 5804 5804 5803 5802 5802 5802 5801 5801 5800 5800 5799 5798 5798 5797 5796 5795 5794 5793 5793 5792 5791 5790 5789 5788 5787 5786 5785 5783 5782 5781 5780 5778 5777 5776 5775 5773 5771 5769 5767 5764 5762 5760 5758 5755 5753 5750 5748 5745 5743 5740 5738 5735 5732 5730 5727 5724 5721 5718 5716 5713 5709 5706 5703 5700 5697 5694 5691 5688 5685 5682 5679 5677 5674 5671 5669 5667 5666
5810 5810 5809 5809 5808 5807 5806 5805 5805 5804 5803 5803 5802 5801 5801 5801 5800 5799 5799 5798 5798 5797 5796 5795 5794 5793 5792 5791 5790 5789 5788 5787 5786 5785 5784 5783 5781 5780 5779 5778 5776 5775 5774 5772 5770 5768 5766 5764 5762 5759 5757 5755 5752 5749 5747 5744 5742 5739 5737 5734 5731 5729 5726 5723 5721 5718 5715 5712 5709 5706 5703 5700 5697 5693 5690 5687 5684 5682 5679 5676 5673 5671 5668 5666 5664 5662
5810 5810 5809 5809 5808 5807 5806 5805 5804 5803 5803 5802 5801 5801 5800 5800 5799 5798 5798 5797 5796 5796 5795 5794 5793 5792 5791 5790 5789 5788 5787 5786 5784 5783 5782 5781 5780 5778 5777 5776 5774 5773 5771 5769 5767 5765 5763 5761 5759 5756 5754 5751 5749 5746 5743 5741 5738 5736 5733 5730 5728 5725 5722 5720 5717 5714 5712 5709 5706 5703 5700 5697 5694 5690 5687 5684 5681 5678 5676 5673 5670 5667 5665 5663 5661 5658
5810 5809 5809 5808 5807 5806 5805 5804 5803 5803 5802 5801 5801 5800 5800 5799 5798 5798 5797 5796 5795 5795 5794 5793 5792 5791 5790 5789 5788 5787 5786 5784 5783 5782 5780 5779 5778 5776 5775 5773 5772 5770 5768 5766 5764 5762 5760 5758 5756 5753 5751 5748 5746 5743 5740 5737 5735 5732 5730 5727 5724 5721 5719 5716 5714 5711 5709 5706 5703 5700 5697 5694 5691 5687 5684 5681 5678 5675 5672 5669 5667 5664 5661 5659 5657 5655
5809 5809 5808 5807 5807 5806 5805 5804 5803 5802 5801 5800 5800 5799 5799 5798 5798 5797 5796 5795 5794 5793 5792 5792 5791 5790 5789 5788 5787 5785 5784 5783 5781 5780 5778 5777 5776 5774 5772 5771 5769 5767 5765 5763 5761 5759 5757 5755 5753 5750 5748 5745 5743 5740 5737 5735 5732 5729 5727 5724 5721 5718 5716 5713 5710 5708 5705 5702 5699 5697 5694 5691 5687 5684 5681 5678 5675 5672 5669 5666 5663 5661 5658 5655 5653 5652
5809 5808 5807 5807 5806 5805 5804 5803 5802 5802 5801 5800 5799 5798 5798 5797 5797 5796 5795 5794 5793 5792 5791 5790 5789 5788 5787 5786 5785 5784 5782 5781 5779 5778 5776 5775 5773 5772 5770 5768 5766 5764 5762 5760 5758 5756 5754 5752 5750 5747 5745 5742 5740 5737 5735 5732 5729 5726 5723 5721 5718 5716 5713 5710 5707 5704 5701 5699 5696 5693 5690 5687 5684 5681 5677 5674 5671 5668 5665 5662 5659 5657 5654 5652 5649 5647
5808 5807 5806 5806 5805 5804 5803 5802 5801 5801 5800 5799 5798 5798 5797 5796 5795 5795 5794 5793 5792 5791 5790 5789 5788 5787 5786 5784 5783 5782 5780 5779 5778 5776 5774 5773 5771 5770 5768 5766 5764 5762 5760 5758 5756 5754 5751 5749 5747 5745 5742 5740 5737 5735 5732 5729 5726 5723 5720 5718 5715 5713 5710 5707 5704 5701 5698 5695 5692 5689 5686 5683 5680 5677 5674 5670 5667 5664 5662 5659 5656 5653 5650 5648 5646 5643
5808 5807 5806 5805 5804 5803 5802 5801 5800 5800 5799 5798 5798 5797 5796 5795 5794 5793 5793 5792 5791 5789 5788 5787 5786 5785 5784 5783 5781 5780 5779 5777 5776 5774 5773 5771 5769 5767 5765 5764 5762 5760 5758 5755 5753 5751 5749 5747 5745 5742 5740 5737 5735 5732 5729 5726 5723 5720 5717 5715 5712 5709 5707 5704 5701 5698 5695 5692 5689 5686 5683 5680 5677 5673 5670 5667 5664 5661 5658 5655 5652 5649 5647 5644 5642 5639
5808 5807 5805 5804 5803 5801 5800 5800 5799 5798 5798 5797 5796 5795 5794 5793 5792 5791 5791 5790 5789 5788 5787 5786 5785 5784 5782 5781 5780 5778 5777 5775 5774 5772 5771 5769 5767 5765 5763 5762 5760 5758 5756 5754 5751 5749 5747 5745 5742 5740 5737 5735 5732 5729 5727 5724 5720 5717 5714 5711 5709 5706 5703 5701 5698 5695 5692 5689 5686 5683 5679 5676 5673 5670 5666 5663 5660 5657 5654 5651 5648 5645 5643 5640 5637 5635
5807 5806 5805 5804 5802 5801 5799 5798 5797 5796 5796 5795 5794 5793 5792 5792 5790 5789 5788 5788 5787 5786 5785 5784 5783 5782 5781 5780 5778 5777 5775 5773 5772 5770 5769 5767 5765 5763 5762 5760 5758 5756 5754 5752 5750 5748 5745 5743 5740 5738 5735 5732 5730 5727 5724 5720 5717 5714 5711 5709 5706 5703 5700 5697 5694 5691 5688 5685 5682 5679 5676 5673 5669 5666 5663 5659 5656 5653 5650 5647 5643 5641 5638 5635 5633 5630
5806 5805 5804 5803 5801 5800 5799 5797 5796 5795 5793 5793 5792 5791 5790 5789 5789 5788 5787 5786 5785 5784 5783 5782 5781 5780 5779 5778 5777 5775 5774 5772 5770 5769 5767 5765 5763 5762 5760 5758 5756 5754 5752 5750 5748 5746 5743 5740 5738 5735 5732 5730 5727 5724 5720 5717 5714 5711 5708 5706 5703 5700 5697 5694 5691 5688 5685 5682 5678 5675 5672 5669 5666 5662 5659 5656 5652 5649 5646 5642 5639 5636 5633 5631 5628 5626
5805 5804 5803 5801 5800 5799 5798 5796 5795 5793 5792 5791 5790 5789 5788 5787 5786 5786 5785 5784 5783 5782 5781 5780 5779 5778 5777 5776 5775 5774 5772 5770 5768 5767 5766 5764 5762 5760 5758 5756 5755 5753 5750 5748 5746 5743 5741 5738 5735 5732 5730 5726 5723 5720 5717 5714 5711 5708 5705 5702 5699 5696 5693 5690 5687 5684 5681 5678 5675 5672 5668 5665 5662 5658 5655 5652 5648 5645 5642 5638 5635 5632 5628 5625 5623 5621
5804 5802 5801 5800 5799 5798 5797 5795 5793 5791 5790 5789 5788 5787 5786 5785 5784 5783 5782 5782 5781 5780 5779 5778 5777 5776 5775 5774 5773 5772 5770 5768 5766 5765 5763 5762 5760 5758 5756 5754 5752 5750 5748 5746 5743 5741 5738 5735 5732 5729 5726 5723 5720 5717 5714 5711 5708 5705 5702 5699 5696 5693 5689 5686 5683 5680 5677 5674 5671 5668 5665 5661 5658 5654 5651 5648 5644 5641 5637 5633 5630 5627 5624 5620 5618 5616
5803 5801 5800 5798 5797 5796 5795 5794 5792 5789 5788 5787 5785 5784 5783 5782 5782 5781 5780 5779 5779 5778 5777 5776 5775 5774 5773 5772 5770 5769 5767 5766 5764 5762 5761 5759 5757 5755 5753 5751 5749 5747 5745 5742 5740 5737 5735 5732 5729 5726 5723 5720 5717 5714 5711 5708 5705 5701 5698 5695 5692 5689 5685 5682 5679 5676 5673 5670 5667 5664 5660 5657 5653 5650 5646 5643 5640 5636 5632 5628 5625 5622 5619 5616 5613 5611
5801 5799 5798 5797 5795 5794 5793 5792 5790 5788 5786 5785 5783 5782 5781 5780 5779 5778 5778 5777 5777 5776 5775 5774 5773 5772 5771 5769 5768 5766 5765 5763 5761 5760 5758 5756 5754 5752 5750 5748 5746 5744 5742 5739 5737 5734 5731 5729 5726 5722 5719 5716 5713 5710 5707 5703 5700 5697 5694 5691 5688 5684 5681 5678 5676 5673 5669 5666 5663 5659 5656 5652 5649 5645 5642 5638 5635 5631 5627 5623 5620 5616 5614 5611 5608 5606
5799 5797 5796 5795 5794 5792 5791 5790 5788 5786 5785 5783 5781 5780 5779 5778 5777 5776 5776 5776 5775 5774 5773 5772 5771 5770 5768 5767 5765 5764 5762 5760 5758 5757 5755 5753 5751 5749 5747 5745 5743 5741 5739 5736 5734 5731 5728 5725 5722 5719 5716 5713 5710 5706 5703 5699 5696 5693 5690 5687 5684 5681 5678 5675 5672 5668 5665 5662 5659 5655 5652 5648 5644 5641 5637 5633 5629 5626 5622 5618 5614 5611 5608 5606 5603 5601
5797 5796 5794 5793 5792 5790 5789 5787 5786 5785 5783 5781 5779 5778 5777 5776 5775 5774 5774 5773 5773 5772 5771 5770 5769 5768 5766 5765 5763 5761 5760 5758 5756 5754 5752 5750 5748 5746 5744 5742 5740 5738 5736 5733 5730 5728 5725 5722 5719 5716 5712 5709 5706 5703 5699 5695 5692 5689 5686 5683 5680 5677 5674 5671 5667 5664 5661 5657 5654 5651 5647 5643 5640 5636 5632 5628 5624 5620 5616 5612 5609 5606 5603 5600 5597 5595
5795 5794 5793 5791 5790 5789 5787 5785 5783 5782 5781 5779 5777 5776 5775 5774 5773 5773 5772 5771 5771 5770 5769 5768 5767 5766 5764 5763 5761 5759 5757 5755 5753 5751 5749 5747 5745 5743 5741 5739 5737 5735 5732 5730 5727 5724 5721 5718 5715 5712 5708 5705 5702 5699 5696 5692 5689 5686 5683 5680 5677 5673 5670 5666 5663 5659 5656 5653 5649 5646 5642 5638 5634 5630 5626 5622 5618 5614 5611 5607 5603 5600 5598 5595 5592 5589
5793 5792 5791 5790 5788 5787 5785 5782 5781 5780 5778 5777 5775 5774 5773 5772 5772 5771 5770 5770 5769 5768 5767 5766 5765 5763 5762 5760 5758 5757 5755 5753 5751 5749 5746 5744 5742 5740 5738 5736 5734 5731 5729 5726 5723 5720 5717 5714 5711 5708 5704 5701 5698 5695 5692 5689 5685 5682 5679 5676 5673 5670 5666 5662 5659 5655 5652 5648 5644 5640 5636 5632 5628 5624 5620 5616 5612 5608 5605 5601 5598 5595 5592 5590 5587 5584
5792 5791 5789 5788 5786 5785 5783 5781 5779 5777 5776 5775 5774 5772 5771 5771 5770 5769 5769 5768 5767 5766 5765 5764 5762 5761 5759 5758 5756 5754 5752 5749 5747 5745 5743 5741 5739 5737 5735 5732 5730 5727 5725 5722 5719 5716 5714 5711 5707 5704 5701 5698 5695 5692 5689 5686 5682 5679 5676 5673 5670 5666 5663 5659 5655 5651 5647 5643 5639 5635 5631 5627 5623 5618 5614 5610 5606 5602 5599 5595 5592 5589 5587 5584 5581 5579
5790 5789 5787 5785 5784 5782 5780 5778 5777 5775 5774 5773 5772 5771 5770 5769 5768 5767 5767 5766 5765 5764 5763 5761 5760 5758 5757 5755 5753 5750 5748 5746 5744 5742 5739 5737 5735 5733 5731 5728 5726 5723 5720 5717 5715 5712 5710 5707 5704 5701 5697 5694 5691 5688 5685 5682 5679 5676 5673 5670 5666 5663 5659 5655 5651 5646 5642 5638 5634 5630 5625 5621 5617 5612 5608 5604 5600 5596 5593 5590 5587 5584 5582 5579 5576 5574
5787 5786 5785 5783 5781 5779 5778 5776 5775 5773 5772 5771 5770 5769 5768 5767 5766 5766 5765 5764 5763 5762 5761 5759 5758 5756 5754 5752 5750 5747 5745 5743 5741 5738 5736 5734 5731 5729 5727 5724 5721 5719 5717 5714 5712 5709 5707 5704 5701 5697 5694 5691 5688 5685 5682 5679 5676 5673 5670 5666 5663 5659 5655 5651 5646 5641 5636 5632 5628 5624 5619 5615 5610 5606 5602 5598 5594 5590 5587 5584 5582 5579 5577 5574 5572 5570
5785 5783 5782 5781 5779 5777 5776 5774 5773 5771 5770 5769 5768 5767 5766 5765 5765 5764 5763 5762 5761 5760 5759 5757 5756 5754 5752 5749 5747 5744 5742 5740 5738 5735 5732 5730 5728 5726 5723 5721 5718 5716 5714 5712 5709 5707 5703 5700 5697 5694 5691 5688 5685 5682 5679 5676 5673 5669 5666 5663 5659 5655 5651 5646 5642 5637 5631 5626 5622 5617 5613 5609 5605 5600 5596 5593 5589 5586 5582 5579 5577 5575 5573 5570 5568 5566
5782 5781 5780 5778 5777 5775 5774 5772 5771 5769 5768 5767 5766 5765 5764 5764 5763 5762 5761 5760 5759 5758 5756 5755 5753 5751 5749 5746 5744 5742 5739 5737 5735 5732 5730 5728 5725 5723 5720 5718 5716 5714 5712 5709 5706 5703 5700 5697 5694 5691 5687 5684 5682 5679 5676 5673 5669 5666 5663 5659 5655 5650 5646 5641 5636 5631 5626 5621 5616 5611 5607 5603 5599 5595 5591 5587 5584 5581 5578 5576 5573 5571 5569 5566 5563 5561